TimeCST,TemperatureF,Dew PointF,Humidity,Sea Level PressureIn,VisibilityMPH,Wind Direction,Wind SpeedMPH,Gust SpeedMPH,PrecipitationIn,Events,Conditions,WindDirDegrees,DateUTC
12:15 AM,42.1,34.7,75,30.38,10.0,Calm,Calm,-,N/A,,Clear,0,2012-11-17 06:15:00
12:35 AM,41.0,40.5,98,30.38,10.0,Calm,Calm,-,N/A,,Clear,0,2012-11-17 06:35:00
12:55 AM,-9999,-9999,N/A,30.38,10.0,Calm,Calm,-,N/A,,Clear,0,2012-11-17 06:55:00
1:15 AM,-9999,-9999,N/A,30.38,10.0,Calm,Calm,-,N/A,,Clear,0,2012-11-17 07:15:00
1:35 AM,-9999,-9999,N/A,30.38,10.0,Calm,Calm,-,N/A,,Clear,0,2012-11-17 07:35:00
1:55 AM,40.1,37.4,90,30.37,10.0,Calm,Calm,-,N/A,,Clear,0,2012-11-17 07:55:00
2:15 AM,42.3,35.8,78,30.37,10.0,Calm,Calm,-,N/A,,Clear,0,2012-11-17 08:15:00
2:35 AM,42.1,35.2,77,30.37,10.0,Calm,Calm,-,N/A,,Clear,0,2012-11-17 08:35:00
2:55 AM,42.4,34.7,74,30.36,10.0,Calm,Calm,-,N/A,,Clear,0,2012-11-17 08:55:00
3:15 AM,42.4,35.2,76,30.36,10.0,Calm,Calm,-,N/A,,Clear,0,2012-11-17 09:15:00
3:35 AM,40.6,34.9,80,30.37,10.0,Calm,Calm,-,N/A,,Clear,0,2012-11-17 09:35:00
3:55 AM,-9999,-9999,N/A,30.37,10.0,Calm,Calm,-,N/A,,Clear,0,2012-11-17 09:55:00
4:15 AM,-9999,-9999,N/A,30.36,10.0,Calm,Calm,-,N/A,,Clear,0,2012-11-17 10:15:00
4:35 AM,-9999,-9999,N/A,30.37,7.0,Calm,Calm,-,N/A,,Clear,0,2012-11-17 10:35:00
4:55 AM,-9999,-9999,N/A,30.38,7.0,Calm,Calm,-,N/A,,Clear,0,2012-11-17 10:55:00
5:15 AM,-9999,-9999,N/A,30.38,7.0,Calm,Calm,-,N/A,,Clear,0,2012-11-17 11:15:00
5:35 AM,-9999,-9999,N/A,30.38,5.0,Calm,Calm,-,N/A,,Haze,0,2012-11-17 11:35:00
5:55 AM,-9999,-9999,N/A,30.38,7.0,Calm,Calm,-,N/A,,Clear,0,2012-11-17 11:55:00
6:15 AM,-9999,-9999,N/A,30.38,5.0,Calm,Calm,-,N/A,,Haze,0,2012-11-17 12:15:00
6:35 AM,-9999,-9999,N/A,30.39,7.0,Calm,Calm,-,N/A,,Clear,0,2012-11-17 12:35:00
6:55 AM,-9999,-9999,N/A,30.40,7.0,Calm,Calm,-,N/A,,Clear,0,2012-11-17 12:55:00
7:15 AM,-9999,-9999,N/A,30.41,7.0,Calm,Calm,-,N/A,,Clear,0,2012-11-17 13:15:00
7:35 AM,-9999,-9999,N/A,30.42,10.0,Calm,Calm,-,N/A,,Clear,0,2012-11-17 13:35:00
7:55 AM,-9999,-9999,N/A,30.42,10.0,Calm,Calm,-,N/A,,Clear,0,2012-11-17 13:55:00
8:15 AM,46.2,38.8,75,30.42,10.0,Calm,Calm,-,N/A,,Clear,0,2012-11-17 14:15:00
8:35 AM,48.9,36.9,63,30.42,10.0,Calm,Calm,-,N/A,,Clear,0,2012-11-17 14:35:00
8:55 AM,51.8,35.2,53,30.43,10.0,Calm,Calm,-,N/A,,Clear,0,2012-11-17 14:55:00
9:15 AM,53.4,34.3,48,30.43,10.0,ENE,3.5,-,N/A,,Clear,70,2012-11-17 15:15:00
9:35 AM,54.5,34.5,47,30.44,10.0,NE,3.5,-,N/A,,Clear,40,2012-11-17 15:35:00
9:55 AM,56.1,34.9,45,30.44,10.0,Calm,Calm,-,N/A,,Clear,0,2012-11-17 15:55:00
10:15 AM,58.1,34.7,41,30.44,10.0,Calm,Calm,-,N/A,,Clear,0,2012-11-17 16:15:00
10:35 AM,59.4,34.3,39,30.43,10.0,Calm,Calm,-,N/A,,Clear,0,2012-11-17 16:35:00
11:55 AM,65.8,31.8,28,30.40,10.0,Calm,Calm,-,N/A,,Clear,0,2012-11-17 17:55:00
12:15 PM,67.3,30.7,26,30.39,7.0,Calm,Calm,-,N/A,,Clear,0,2012-11-17 18:15:00
12:35 PM,66.4,28.2,24,30.37,10.0,North,5.8,-,N/A,,Clear,350,2012-11-17 18:35:00
12:55 PM,67.5,23.2,19,30.37,10.0,NE,4.6,-,N/A,,Clear,40,2012-11-17 18:55:00
1:15 PM,67.3,25.2,20,30.36,10.0,East,3.5,-,N/A,,Clear,100,2012-11-17 19:15:00
1:35 PM,67.8,23.9,19,30.36,10.0,NNE,3.5,-,N/A,,Clear,30,2012-11-17 19:35:00
1:55 PM,68.2,22.6,18,30.35,10.0,Calm,Calm,-,N/A,,Clear,0,2012-11-17 19:55:00
2:15 PM,68.4,24.4,19,30.35,10.0,NE,4.6,-,N/A,,Clear,50,2012-11-17 20:15:00
2:35 PM,68.4,25.5,20,30.34,10.0,Calm,Calm,-,N/A,,Clear,0,2012-11-17 20:35:00
2:55 PM,68.0,27.0,21,30.34,10.0,Calm,Calm,-,N/A,,Clear,0,2012-11-17 20:55:00
3:15 PM,67.5,27.0,22,30.34,10.0,Calm,Calm,-,N/A,,Clear,0,2012-11-17 21:15:00
3:35 PM,66.9,29.7,25,30.34,10.0,Calm,Calm,-,N/A,,Clear,0,2012-11-17 21:35:00
3:55 PM,66.0,32.0,28,30.34,10.0,Calm,Calm,-,N/A,,Clear,0,2012-11-17 21:55:00
4:15 PM,64.6,32.4,30,30.34,10.0,Calm,Calm,-,N/A,,Clear,0,2012-11-17 22:15:00
4:35 PM,62.8,33.6,34,30.34,10.0,Calm,Calm,-,N/A,,Clear,0,2012-11-17 22:35:00
4:55 PM,58.8,38.5,47,30.34,10.0,Calm,Calm,-,N/A,,Clear,0,2012-11-17 22:55:00
5:15 PM,54.7,38.5,54,30.33,10.0,Calm,Calm,-,N/A,,Clear,0,2012-11-17 23:15:00
5:35 PM,52.2,39.9,63,30.33,10.0,Calm,Calm,-,N/A,,Clear,0,2012-11-17 23:35:00
5:55 PM,51.4,38.5,61,30.33,10.0,Calm,Calm,-,N/A,,Clear,0,2012-11-17 23:55:00
6:15 PM,50.2,38.1,63,30.33,10.0,Calm,Calm,-,N/A,,Clear,0,2012-11-18 00:15:00
6:35 PM,49.5,39.2,68,30.34,10.0,Calm,Calm,-,N/A,,Clear,0,2012-11-18 00:35:00
6:55 PM,47.8,39.2,72,30.35,10.0,Calm,Calm,-,N/A,,Clear,0,2012-11-18 00:55:00
7:15 PM,46.8,39.4,75,30.35,10.0,Calm,Calm,-,N/A,,Clear,0,2012-11-18 01:15:00
7:35 PM,46.2,38.7,75,30.35,10.0,Calm,Calm,-,N/A,,Clear,0,2012-11-18 01:35:00
7:55 PM,46.2,39.4,77,30.36,10.0,Calm,Calm,-,N/A,,Clear,0,2012-11-18 01:55:00
8:15 PM,47.1,37.8,70,30.36,10.0,Calm,Calm,-,N/A,,Clear,0,2012-11-18 02:15:00
8:35 PM,46.8,38.3,72,30.36,10.0,Calm,Calm,-,N/A,,Clear,0,2012-11-18 02:35:00
8:55 PM,45.9,38.7,76,30.37,10.0,Calm,Calm,-,N/A,,Clear,0,2012-11-18 02:55:00
9:15 PM,46.2,37.6,72,30.37,10.0,Calm,Calm,-,N/A,,Clear,0,2012-11-18 03:15:00
9:35 PM,45.5,38.1,75,30.38,10.0,Calm,Calm,-,N/A,,Clear,0,2012-11-18 03:35:00
9:55 PM,44.6,38.5,79,30.37,10.0,Calm,Calm,-,N/A,,Clear,0,2012-11-18 03:55:00
10:15 PM,45.1,37.8,75,30.37,10.0,Calm,Calm,-,N/A,,Clear,0,2012-11-18 04:15:00
10:35 PM,44.4,37.2,76,30.37,10.0,Calm,Calm,-,N/A,,Clear,0,2012-11-18 04:35:00
10:55 PM,45.1,37.6,75,30.37,10.0,Calm,Calm,-,N/A,,Clear,0,2012-11-18 04:55:00
11:15 PM,45.7,37.2,72,30.36,10.0,Calm,Calm,-,N/A,,Clear,0,2012-11-18 05:15:00
11:35 PM,44.4,37.0,75,30.36,10.0,Calm,Calm,-,N/A,,Clear,0,2012-11-18 05:35:00
11:55 PM,43.3,37.4,80,30.36,10.0,Calm,Calm,-,N/A,,Clear,0,2012-11-18 05:55:00